Temperature
25 23 22 21 20 20 19 19 19 19 18 18 18 18 18 18 18 18 18 18 18 18 18 18 18 18 18 18 18 18 18 18 17 17 17 18 18 17 17 17 17 17 17
24 23 22 21 20 20 19 19 19 19 19 18 18 18 18 18 18 18 18 18 18 18 18 18 18 18 18 17 17 17 17 17 18 18 18 18 18 18 18 17 17 17 17
24 23 21 21 20 19 19 19 19 19 19 18 18 18 18 18 18 18 18 18 18 18 18 18 18 18 17 17 17 17 17 17 18 18 18 18 18 18 18 18 18 18 17
25 23 22 21 20 19 19 19 18 18 18 18 18 18 18 18 18 18 18 17 17 17 17 17 17 17 17 17 17 17 17 17 17 18 18 18 18 18 18 18 18 18 17
25 23 22 21 20 19 19 19 18 18 18 18 18 18 18 18 18 17 17 17 17 17 17 17 17 17 17 17 17 17 17 17 17 17 18 18 18 18 18 18 18 18 18
25 23 22 21 20 20 19 18 18 18 18 18 18 18 18 18 17 17 17 17 17 17 17 17 17 17 17 17 17 17 17 17 17 17 18 18 18 18 18 18 18 18 18
25 23 22 21 20 20 19 19 18 18 18 18 18 18 18 18 17 17 17 17 17 17 17 17 17 17 17 17 17 17 17 17 17 17 17 17 17 18 18 18 18 18 18
25 24 22 21 20 20 19 19 18 18 18 18 18 18 18 17 17 17 17 17 17 17 17 17 17 17 17 17 17 17 17 17 17 17 17 17 17 17 18 18 18 18 18
25 24 23 22 21 20 19 19 18 18 18 18 18 18 17 17 17 17 17 17 17 17 17 17 17 17 17 17 17 17 17 17 17 17 17 17 17 17 17 17 18 18 18
25 24 23 22 21 20 19 18 18 18 18 18 18 18 18 17 17 17 17 17 17 17 17 17 17 17 17 17 17 17 16 16 16 16 17 17 17 17 17 17 17 17 17
24 23 22 21 20 20 19 18 18 18 18 18 17 17 17 17 17 17 17 17 17 17 17 17 17 17 16 17 16 16 16 16 16 16 16 16 16 16 17 17 17 17 17
24 23 22 21 20 20 19 18 18 18 18 17 17 17 17 17 17 17 17 17 17 17 17 17 17 16 16 16 16 16 16 16 16 16 16 16 16 16 16 16 16 16 16
24 22 22 21 20 20 19 19 18 18 17 17 17 17 17 17 17 17 17 17 17 17 17 16 16 16 16 16 16 16 16 16 16 16 16 16 16 16 16 16 16 16 15
23 22 21 21 20 19 19 19 18 18 17 17 17 17 17 17 17 17 17 17 17 16 16 16 16 16 16 16 16 16 16 15 15 15 15 15 15 15 15 15 15 15 15
23 22 21 20 20 19 19 18 18 18 17 17 17 17 17 17 16 16 16 16 16 16 16 16 16 16 16 16 15 15 15 15 15 15 15 15 15 15 15 14 14 14 14
23 22 21 20 19 19 18 18 18 17 17 17 17 17 16 16 16 16 16 16 16 16 16 16 16 15 15 15 15 15 15 15 15 15 14 14 14 14 14 14 14 14 13
22 21 20 19 19 19 18 18 17 17 17 17 16 16 16 16 16 16 16 16 16 16 15 15 15 15 15 15 15 15 14 14 14 14 14 14 13 13 13 13 13 13 13
22 21 20 19 19 18 18 18 17 17 17 16 16 16 16 16 16 16 15 15 15 15 15 15 15 15 15 14 14 14 14 14 14 13 13 13 13 13 13 12 12 12 12
21 20 20 19 18 18 18 17 17 17 16 16 16 16 16 16 16 15 15 15 15 15 15 14 14 14 14 14 14 14 13 13 13 12 12 12 12 12 12 11 11 11 10
20 19 19 19 18 18 17 17 17 16 16 16 16 16 16 16 15 15 15 15 14 14 14 14 14 13 13 13 13 13 13 12 12 12 11 11 11 11 11 10 10 10 9
19 19 18 18 17 17 17 17 16 16 16 16 16 15 15 15 15 15 14 14 14 14 13 13 13 13 12 12 12 12 12 12 11 11 11 10 10 10 10 9 9 9 8
18 18 17 17 17 17 16 16 16 15 15 15 15 15 14 14 14 14 14 13 13 13 13 12 12 12 12 11 11 11 11 11 11 10 10 9 9 9 9 9 8 8 7
17 17 17 16 16 16 16 15 15 15 15 15 14 14 14 14 13 13 13 13 13 12 12 12 11 11 11 10 10 10 10 10 10 9 9 8 8 8 7 7 7 7 6
16 16 16 15 15 15 15 15 14 14 14 14 14 13 13 13 12 12 12 12 12 12 11 11 11 10 10 9 9 9 9 9 8 8 8 7 7 7 6 6 6 6 6
15 15 14 14 14 14 14 14 14 14 14 13 13 12 12 12 12 11 11 11 11 11 11 11 10 10 9 8 8 8 8 8 8 7 7 7 6 6 6 6 5 5 5
14 14 13 13 13 13 13 13 13 13 13 13 12 12 11 11 11 10 10 10 10 10 10 10 9 9 8 8 8 7 7 7 7 7 6 6 6 6 6 6 5 5 5
Wind_Speed
12 13 13 13 13 13 13 12 11 11 9 8 8 7 6 5 4 4 9 10 8 9 6 3 5 3 3 4 5 4 4 2 3 2 2 3 4 4 3 3 3 6 8
13 13 13 13 14 13 13 13 12 12 10 8 7 6 6 5 5 4 6 10 9 9 7 4 5 4 3 4 4 3 2 3 3 2 2 2 2 3 6 4 5 5 6
15 15 14 13 14 14 14 12 11 11 11 10 7 6 5 4 4 5 6 7 9 9 6 6 4 4 5 5 5 5 4 3 2 2 1 1 2 2 2 4 4 4 3
14 14 14 14 13 13 13 11 11 11 10 10 10 10 8 7 7 6 6 6 7 8 7 6 5 4 3 5 6 6 4 3 3 2 2 1 1 1 1 2 3 4 4
13 14 14 14 13 13 12 11 11 11 10 10 10 10 8 7 6 7 8 7 6 7 7 6 5 5 4 5 5 5 4 3 3 2 2 2 2 2 2 3 2 2 3
12 12 12 12 11 12 11 11 11 10 11 11 10 10 9 8 8 8 8 7 6 6 7 7 6 5 5 5 4 4 5 3 2 1 1 1 1 2 1 2 3 3 2
11 12 12 12 12 11 11 11 11 10 10 11 10 10 9 9 9 9 8 7 6 6 7 8 6 5 5 5 5 5 4 5 4 3 2 1 2 1 1 1 2 2 2
11 11 12 12 11 11 11 11 11 10 10 10 9 8 8 7 6 8 7 7 6 7 8 7 7 6 6 7 5 5 5 5 4 5 3 2 2 1 1 1 0 1 1
11 11 11 10 10 10 10 10 9 9 9 9 9 8 8 7 6 7 7 6 5 6 8 8 8 7 6 6 6 5 5 5 5 4 4 3 2 1 1 1 0 0 1
9 10 10 10 9 9 8 8 8 8 8 9 8 8 8 8 7 7 7 6 6 5 7 8 8 7 7 6 6 5 5 5 4 3 3 3 2 2 1 0 1 1 1
10 10 9 9 9 9 8 8 8 7 7 7 7 6 7 7 7 7 7 6 5 6 6 7 7 7 7 7 6 6 6 7 5 4 4 4 2 1 1 1 1 1 1
11 11 10 9 9 9 9 8 8 8 7 6 6 6 6 6 6 7 6 6 6 6 6 6 6 7 7 6 7 7 7 7 6 5 4 4 3 2 1 1 1 1 1
11 11 10 9 8 7 7 8 7 8 7 7 6 6 6 6 6 6 6 5 5 5 5 6 6 6 6 6 6 6 5 5 5 4 4 3 3 2 1 0 1 2 2
10 10 9 8 7 6 5 6 6 7 7 7 7 6 6 6 6 5 5 5 6 5 5 5 6 6 6 6 6 6 5 5 5 4 4 3 3 2 2 1 1 2 2
10 9 8 8 7 6 5 5 5 5 6 7 7 7 6 5 5 5 5 6 5 6 5 5 5 5 5 6 7 7 7 7 6 6 6 6 8 9 6 4 3 3 2
9 9 8 8 7 6 6 5 5 6 5 5 6 6 6 6 5 5 5 5 5 5 5 5 5 5 5 7 9 8 7 7 7 7 6 7 9 11 13 15 14 9 5
9 9 8 7 6 6 6 5 5 5 6 5 5 5 6 5 5 6 6 6 5 5 5 5 5 5 7 10 11 10 8 7 6 6 5 5 7 8 9 12 15 15 15
9 8 7 7 6 6 6 5 6 6 6 5 5 5 5 5 5 5 5 6 5 5 5 6 7 7 8 11 12 12 8 8 7 6 6 7 6 6 7 9 10 10 10
7 7 6 6 6 6 6 5 5 5 5 5 5 5 5 5 5 6 6 6 7 7 7 7 8 9 9 10 12 11 9 8 8 8 8 8 8 10 10 10 10 9 7
7 6 6 7 6 5 6 5 5 5 5 4 5 5 5 5 6 7 7 7 8 9 9 9 9 10 9 9 10 9 8 9 9 9 10 12 11 12 11 9 8 8 5
7 6 6 6 5 5 5 5 5 5 5 5 6 6 6 7 7 7 7 9 9 10 10 11 10 9 9 10 11 9 7 8 9 8 8 8 13 14 13 10 8 7 4
6 6 6 6 6 5 6 6 5 5 6 7 7 7 7 7 7 8 8 9 10 11 10 10 10 8 8 10 12 13 12 11 10 9 8 8 12 13 12 9 8 8 5
6 6 6 7 6 5 6 6 5 6 7 8 8 8 8 7 7 8 8 8 8 8 8 8 9 8 8 10 15 15 16 15 11 10 12 11 11 10 8 8 7 5 3
6 6 7 7 6 6 6 6 6 8 9 9 9 8 9 9 8 7 6 6 6 7 8 8 9 9 8 7 8 9 11 14 13 10 10 10 8 5 4 3 3 2 4
6 6 7 7 7 7 7 7 7 9 10 10 10 10 10 10 10 10 9 8 7 5 7 7 8 9 9 7 9 9 8 7 8 7 5 4 4 3 3 3 4 3 4
6 6 7 8 8 8 8 7 7 8 10 9 9 9 9 9 10 11 12 18 15 16 15 13 12 10 12 13 13 13 12 11 8 6 5 5 4 4 4 4 3 3 4
Wind_Direction
158 155 162 166 166 160 163 168 170 166 163 170 172 171 170 171 170 167 159 166 174 172 193 168 159 189 167 163 151 138 155 187 167 132 160 207 200 187 183 203 188 193 193
157 157 163 168 168 165 167 170 174 171 172 175 174 173 167 169 175 180 158 170 177 179 185 175 175 175 161 165 153 145 158 200 179 169 164 188 228 215 206 189 198 197 196
162 163 167 170 170 169 173 177 176 174 177 172 170 170 155 163 178 180 169 180 182 186 188 177 190 172 177 167 173 176 189 206 192 196 168 184 202 212 219 208 196 173 182
160 163 168 170 173 172 174 173 174 177 179 174 177 176 177 182 185 182 177 183 190 190 187 180 183 184 186 163 186 187 197 199 208 205 194 180 151 165 173 242 197 180 192
161 164 169 171 171 171 171 173 174 178 180 183 185 187 189 187 181 179 177 183 192 194 188 183 187 186 194 184 196 167 190 201 208 205 200 215 199 222 186 198 198 199 195
156 159 163 162 163 166 170 173 174 181 184 189 191 194 193 186 183 182 178 185 189 197 193 190 190 191 198 185 183 174 192 211 217 214 196 187 216 218 214 183 187 194 216
152 156 159 160 163 168 171 173 175 183 187 191 195 197 196 189 186 183 186 190 192 197 194 194 187 195 194 186 181 181 193 202 206 206 243 241 249 228 227 184 206 193 194
158 159 161 162 165 170 172 173 176 182 187 190 194 193 189 192 192 186 188 199 201 197 182 183 186 198 195 194 178 184 193 193 193 206 215 252 254 263 260 241 250 209 209
151 153 153 155 158 165 168 172 175 179 183 188 189 189 187 191 193 187 193 204 201 197 177 182 186 193 192 193 175 191 190 177 182 201 203 221 249 248 264 286 326 174 241
142 140 144 144 149 154 155 158 168 174 179 184 189 189 185 187 190 190 197 198 199 200 183 186 187 186 185 188 182 192 187 178 185 197 193 198 252 252 245 257 327 343 280
137 137 141 141 142 144 150 156 161 164 171 178 182 179 179 183 185 190 192 188 188 189 188 183 182 186 187 183 180 197 187 182 187 204 190 183 224 322 333 354 340 341 16
133 140 145 147 150 151 154 156 160 164 166 167 168 170 168 173 180 186 188 186 185 187 184 176 182 190 186 181 182 200 192 183 187 195 188 185 190 162 352 347 2 16 48
134 137 142 145 151 150 151 155 162 160 160 160 161 161 168 173 179 182 182 179 178 183 180 177 185 189 181 181 186 192 184 173 170 169 173 171 159 166 153 92 19 26 41
136 136 136 137 137 136 141 147 150 149 156 159 163 163 171 176 180 176 174 172 170 172 176 177 178 176 175 177 174 165 156 135 122 116 114 110 118 126 138 115 58 41 28
142 141 141 137 138 137 140 140 144 145 151 158 164 168 171 170 168 166 166 164 168 172 164 162 162 164 169 174 159 146 141 128 118 105 99 93 92 81 77 86 67 63 57
146 142 139 139 144 147 150 150 150 147 147 154 161 161 164 166 164 161 152 150 154 153 149 151 154 156 163 140 140 140 131 128 125 120 112 104 93 89 83 78 71 64 68
140 141 144 145 146 151 155 155 147 144 145 149 150 152 158 161 160 161 150 150 148 142 137 134 124 117 115 120 123 125 127 122 120 121 120 115 108 102 99 87 76 64 59
136 138 143 139 142 148 151 148 147 141 141 140 139 140 146 153 150 144 140 137 131 127 120 113 112 112 108 108 111 111 111 104 98 95 97 97 87 91 99 99 86 72 56
117 126 133 133 132 137 137 138 141 141 141 137 134 136 137 136 134 136 135 130 122 115 111 110 109 104 100 102 109 110 109 101 89 82 78 88 86 75 87 97 95 90 81
97 104 115 118 118 117 128 135 134 127 125 127 122 118 125 132 127 121 121 118 113 109 105 98 97 99 96 93 103 109 115 109 99 86 76 71 79 75 74 88 93 89 78
98 103 107 107 105 113 121 127 124 124 122 117 111 106 106 109 109 111 114 115 112 107 102 98 91 88 89 86 86 96 107 114 109 100 90 79 77 73 69 73 79 78 59
103 104 102 100 96 101 117 115 112 111 112 111 108 105 103 105 110 108 108 112 115 113 108 103 94 83 80 81 83 87 93 101 103 101 98 92 84 77 73 70 61 44 26
98 96 100 96 90 88 102 113 112 112 112 106 101 100 100 96 97 103 108 111 113 117 117 114 109 100 89 79 80 86 88 90 94 98 103 101 93 85 77 73 56 39 32
97 98 99 98 88 82 88 98 110 113 111 108 103 100 98 93 87 85 90 101 109 119 124 122 119 112 102 96 95 96 96 95 99 105 104 97 89 84 84 82 72 77 57
95 100 105 102 96 90 88 89 100 112 112 110 109 105 99 96 88 77 66 76 72 97 119 120 121 123 115 105 104 110 106 107 109 115 115 117 119 121 114 96 75 64 58
96 99 102 101 95 92 91 88 98 113 117 116 112 109 108 106 103 98 82 63 70 71 76 89 102 98 104 105 95 93 96 98 106 108 117 111 103 96 88 84 83 76 60
Height
1483 1486 1489 1493 1497 1500 1504 1507 1511 1514 1518 1521 1525 1528 1532 1535 1539 1542 1545 1548 1551 1553 1555 1558 1560 1562 1564 1566 1568 1569 1571 1573 1575 1576 1577 1578 1579 1580 1581 1582 1583 1584 1585
1480 1484 1487 1491 1494 1498 1501 1505 1509 1512 1515 1519 1523 1526 1530 1534 1537 1540 1543 1546 1549 1551 1554 1556 1558 1561 1563 1565 1566 1568 1570 1572 1574 1575 1576 1577 1579 1579 1580 1581 1582 1583 1584
1478 1482 1486 1489 1493 1496 1500 1503 1507 1510 1514 1517 1521 1525 1529 1532 1535 1538 1540 1543 1547 1549 1552 1554 1557 1559 1561 1563 1565 1567 1569 1571 1573 1574 1576 1576 1577 1577 1579 1580 1581 1582 1583
1476 1480 1484 1488 1491 1495 1499 1502 1505 1508 1512 1515 1518 1521 1525 1528 1531 1534 1538 1541 1544 1547 1550 1552 1555 1557 1559 1561 1563 1565 1567 1570 1571 1573 1574 1575 1576 1577 1577 1579 1579 1580 1581
1475 1479 1483 1486 1490 1494 1497 1500 1503 1506 1509 1513 1516 1519 1523 1526 1529 1532 1535 1539 1542 1545 1547 1550 1552 1555 1557 1560 1562 1564 1566 1568 1569 1571 1572 1573 1575 1575 1576 1577 1578 1579 1580
1474 1479 1483 1486 1490 1493 1496 1498 1501 1504 1507 1510 1514 1517 1520 1523 1526 1530 1533 1536 1539 1542 1545 1547 1550 1552 1555 1557 1559 1561 1563 1565 1567 1569 1570 1572 1573 1574 1575 1575 1576 1577 1578
1474 1478 1482 1486 1489 1492 1494 1497 1499 1501 1505 1508 1511 1514 1517 1521 1524 1527 1530 1533 1536 1539 1542 1545 1547 1549 1552 1554 1556 1558 1561 1563 1565 1566 1568 1570 1571 1572 1573 1574 1575 1576 1577
1473 1478 1481 1485 1488 1491 1493 1495 1497 1499 1502 1505 1508 1511 1515 1518 1521 1524 1527 1530 1533 1535 1538 1541 1543 1546 1549 1551 1553 1556 1558 1560 1562 1564 1566 1568 1569 1571 1572 1573 1574 1574 1575
1473 1477 1481 1484 1487 1490 1492 1494 1496 1498 1500 1503 1506 1509 1511 1514 1518 1521 1524 1527 1530 1532 1535 1538 1540 1543 1545 1548 1550 1553 1555 1557 1559 1562 1564 1566 1567 1569 1570 1571 1572 1574 1574
1474 1477 1481 1484 1487 1489 1491 1493 1494 1496 1499 1501 1504 1506 1509 1512 1515 1518 1521 1524 1526 1529 1532 1534 1537 1539 1542 1545 1547 1549 1552 1555 1557 1559 1561 1563 1565 1567 1568 1569 1570 1571 1572
1473 1477 1481 1484 1487 1489 1491 1492 1494 1496 1498 1500 1502 1504 1507 1509 1512 1515 1518 1521 1523 1526 1528 1531 1533 1536 1539 1541 1544 1546 1549 1552 1554 1556 1558 1560 1562 1564 1565 1566 1567 1568 1569
1473 1477 1481 1484 1487 1489 1491 1493 1494 1496 1497 1499 1501 1503 1505 1507 1510 1513 1515 1518 1520 1523 1525 1528 1530 1533 1535 1538 1541 1543 1546 1549 1551 1553 1555 1557 1559 1560 1562 1563 1565 1566 1567
1474 1477 1481 1484 1487 1489 1491 1493 1494 1496 1497 1499 1500 1502 1504 1506 1508 1510 1512 1515 1517 1520 1522 1524 1527 1530 1532 1535 1538 1541 1543 1546 1548 1550 1552 1554 1556 1557 1559 1560 1562 1563 1564
1474 1478 1481 1484 1487 1489 1491 1493 1494 1496 1497 1498 1499 1501 1502 1504 1506 1508 1510 1512 1514 1517 1519 1522 1524 1527 1529 1532 1535 1538 1540 1543 1545 1547 1549 1551 1553 1554 1556 1557 1558 1560 1561
1475 1478 1481 1484 1487 1489 1491 1493 1494 1496 1497 1498 1499 1500 1502 1503 1505 1507 1508 1511 1513 1515 1517 1520 1522 1524 1527 1530 1532 1535 1538 1540 1542 1544 1547 1548 1550 1551 1553 1554 1555 1557 1558
1475 1478 1481 1483 1486 1488 1490 1492 1494 1495 1496 1498 1499 1500 1501 1503 1504 1506 1507 1509 1511 1513 1516 1518 1520 1522 1525 1528 1530 1533 1535 1538 1540 1542 1544 1546 1547 1549 1550 1552 1553 1554 1555
1474 1477 1480 1483 1486 1488 1490 1491 1493 1495 1496 1497 1499 1500 1501 1502 1504 1505 1507 1508 1510 1512 1514 1517 1518 1520 1523 1526 1529 1531 1534 1536 1538 1540 1542 1543 1545 1546 1548 1549 1550 1551 1553
1474 1477 1480 1483 1485 1487 1489 1491 1493 1494 1496 1497 1498 1499 1501 1502 1503 1504 1506 1508 1510 1511 1513 1515 1517 1520 1522 1524 1527 1530 1532 1534 1536 1538 1540 1542 1544 1545 1546 1547 1548 1549 1551
1474 1477 1480 1482 1484 1486 1488 1490 1492 1493 1495 1496 1497 1499 1500 1501 1502 1503 1505 1507 1509 1510 1512 1515 1517 1519 1521 1524 1526 1529 1531 1533 1535 1537 1539 1541 1542 1544 1545 1546 1547 1548 1550
1475 1477 1480 1482 1484 1486 1487 1489 1491 1492 1494 1495 1496 1497 1499 1500 1501 1502 1504 1506 1508 1510 1512 1514 1517 1519 1521 1524 1525 1528 1529 1531 1533 1536 1538 1540 1542 1543 1544 1546 1547 1548 1550
1475 1477 1479 1481 1483 1485 1486 1488 1489 1491 1492 1494 1495 1496 1497 1499 1500 1502 1503 1505 1508 1510 1512 1515 1517 1520 1522 1524 1526 1527 1529 1531 1533 1535 1537 1540 1542 1543 1545 1546 1547 1549 1550
1476 1478 1479 1481 1482 1484 1485 1486 1488 1490 1491 1492 1494 1495 1497 1499 1500 1501 1503 1505 1508 1510 1513 1515 1517 1520 1522 1524 1526 1528 1530 1532 1534 1536 1538 1540 1542 1543 1545 1546 1548 1549 1550
1477 1478 1479 1480 1482 1483 1484 1485 1487 1488 1490 1491 1493 1494 1496 1498 1500 1502 1504 1506 1508 1510 1513 1515 1517 1519 1522 1525 1527 1529 1531 1533 1535 1537 1539 1541 1543 1544 1546 1547 1549 1549 1551
1477 1478 1479 1480 1481 1482 1483 1485 1486 1488 1489 1490 1492 1494 1496 1498 1500 1502 1504 1506 1508 1510 1512 1515 1517 1519 1522 1525 1527 1529 1531 1533 1536 1538 1540 1543 1544 1546 1547 1548 1550 1550 1551
1477 1478 1479 1480 1481 1482 1483 1484 1485 1487 1488 1490 1492 1494 1496 1498 1500 1502 1504 1506 1509 1511 1513 1515 1517 1519 1522 1526 1528 1531 1533 1535 1537 1539 1542 1544 1546 1548 1549 1550 1551 1552 1553
1478 1479 1479 1480 1481 1482 1483 1484 1486 1487 1488 1490 1492 1494 1496 1498 1500 1502 1505 1508 1510 1512 1515 1517 1519 1522 1525 1527 1530 1533 1535 1538 1540 1541 1544 1546 1549 1550 1552 1553 1553 1553 1553